GW4768 Weather Reports


Display with metric or nautical units.
time (UTC)temp
F
wind
direction
speed
MPH
gust
MPH
rain 1hr
in
rain 24hr
in
rain mn
in
humidity
%
barometer
mb
20260508011524 68 273 6.0 11.0 0.00 0.00 0.00 31 1014.5
20260508010031 69 290 5.0 10.0 0.00 0.00 0.00 28 1014.6
20260508004521 69 251 5.0 10.0 0.00 0.00 0.00 29 1014.6
20260508003018 69 254 5.0 14.0 0.00 0.00 0.00 28 1014.7
20260508001519 69 268 8.0 15.0 0.00 0.00 0.00 28 1014.5
20260508000017 70 311 6.0 16.0 0.00 0.00 0.00 28 1014.5
20260507234512 70 304 6.0 12.0 0.00 0.00 0.00 28 1014.4
20260507233026 70 239 7.0 12.0 0.00 0.00 0.00 29 1014.2
20260507231528 70 290 7.0 15.0 0.00 0.00 0.00 29 1014.3
20260507230026 69 242 4.0 10.0 0.00 0.00 0.00 31 1014.3
20260507224524 69 302 3.0 12.0 0.00 0.00 0.00 30 1014.5
20260507223029 70 308 3.0 9.0 0.00 0.00 0.00 30 1014.5
20260507221521 70 250 3.0 11.0 0.00 0.00 0.00 28 1014.7
20260507214527 71 241 8.0 12.0 0.00 0.00 0.00 29 1014.7
20260507213029 69 302 1.0 10.0 0.00 0.00 0.00 30 1014.6
20260507211530 70 288 5.0 15.0 0.00 0.00 0.00 27 1014.8
20260507210028 70 226 9.0 17.0 0.00 0.00 0.00 30 1014.9
20260507204525 70 254 8.0 16.0 0.00 0.00 0.00 30 1014.9
20260507203027 69 317 4.0 9.0 0.00 0.00 0.00 36 1015.0
20260507201528 67 38 2.0 8.0 0.00 0.00 0.00 35 1015.1
20260507200023 68 44 7.0 11.0 0.00 0.00 0.00 37 1015.1
20260507193025 67 46 1.0 11.0 0.00 0.00 0.00 39 1015.2
20260507191516 66 192 2.0 7.0 0.00 0.00 0.00 36 1015.1
20260507184512 64 106 4.0 12.0 0.00 0.00 0.00 38 1015.3
20260507183013 65 122 7.0 10.0 0.00 0.00 0.00 40 1015.3
20260507181525 64 328 3.0 10.0 0.00 0.00 0.00 37 1015.4
20260507180023 65 42 2.0 7.0 0.00 0.00 0.00 38 1015.7
20260507174529 65 302 6.0 10.0 0.00 0.00 0.00 38 1015.8
20260507171526 65 219 2.0 10.0 0.00 0.00 0.00 40 1016.1
20260507170017 63 344 3.0 6.0 0.00 0.00 0.00 43 1016.0
20260507164528 62 342 1.0 8.0 0.00 0.00 0.00 42 1016.0
20260507163012 62 350 4.0 7.0 0.00 0.00 0.00 41 1016.2
20260507161527 60 107 1.0 4.0 0.00 0.00 0.00 41 1016.2
20260507160033 60 66 2.0 8.0 0.00 0.00 0.00 42 1016.3
20260507154526 60 61 5.0 10.0 0.00 0.00 0.00 43 1016.3
20260507153022 59 107 5.0 12.0 0.00 0.00 0.00 48 1016.5
20260507150021 60 57 7.0 12.0 0.00 0.00 0.00 44 1016.3
20260507144528 60 69 6.0 11.0 0.00 0.00 0.00 44 1016.3
20260507141537 61 24 2.0 3.0 0.00 0.00 0.00 39 1015.8
20260507134504 58 215 2.0 11.0 0.00 0.00 0.00 43 1015.5
20260507133004 58 226 4.0 8.0 0.00 0.00 0.00 46 1015.4
20260507131508 57 189 2.0 2.0 0.00 0.00 0.00 50 1015.2
20260507124504 55 178 0.0 3.0 0.00 0.00 0.00 52 1014.9
20260507123003 55 125 0.0 3.0 0.00 0.00 0.00 53 1014.9
20260507121504 55 205 0.0 8.0 0.00 0.00 0.00 54 1015.0
20260507120006 54 163 2.0 7.0 0.00 0.00 0.00 56 1015.0
20260507111506 55 133 3.0 8.0 0.00 0.00 0.00 55 1014.8
20260507110006 54 129 4.0 7.0 0.00 0.00 0.00 57 1014.8
20260507104505 54 148 7.0 9.0 0.00 0.00 0.00 58 1014.7
20260507103003 55 125 3.0 6.0 0.00 0.00 0.00 56 1014.7
20260507101503 54 130 6.0 7.0 0.00 0.00 0.00 57 1014.7
20260507100007 56 119 1.0 3.0 0.00 0.00 0.00 54 1014.5
20260507094506 56 165 1.0 2.0 0.00 0.00 0.00 52 1014.5
20260507093009 57 98 1.0 2.0 0.00 0.00 0.00 52 1014.5
20260507091511 58 145 2.0 5.0 0.00 0.00 0.00 49 1014.3
20260507090007 60 192 0.0 4.0 0.00 0.00 0.00 45 1014.3
20260507084504 60 145 2.0 5.0 0.00 0.00 0.00 45 1014.3
20260507083004 60 167 0.0 5.0 0.00 0.00 0.00 45 1014.4
20260507081509 60 153 1.0 7.0 0.00 0.00 0.00 45 1014.4
20260507080007 61 318 1.0 3.0 0.00 0.00 0.00 43 1014.3
20260507074512 62 196 2.0 14.0 0.00 0.00 0.00 42 1014.2
20260507073009 60 272 2.0 6.0 0.00 0.00 0.00 46 1014.4
20260507071520 60 138 1.0 4.0 0.00 0.00 0.00 46 1014.4
20260507070013 61 244 1.0 2.0 0.00 0.00 0.00 44 1014.4
20260507064507 61 25 0.0 4.0 0.00 0.00 0.00 44 1014.4
20260507063016 61 41 0.0 2.0 0.00 0.00 0.00 43 1014.4
20260507061514 62 254 1.0 3.0 0.00 0.00 0.00 42 1014.5
20260507060011 63 21 0.0 7.0 0.00 0.00 0.00 40 1014.5
20260507054511 63 328 0.0 7.0 0.00 0.00 0.00 40 1014.6
20260507053013 63 236 0.0 4.0 0.00 0.00 0.00 41 1014.6
20260507050032 64 321 5.0 11.0 0.00 0.00 0.00 40 1014.4
20260507043017 64 236 5.0 10.0 0.00 0.00 0.00 44 1014.1
20260507040019 64 215 1.0 4.0 0.00 0.00 0.00 44 1014.0
20260507034516 64 225 1.0 3.0 0.00 0.00 0.00 43 1013.8
20260507033021 64 296 1.0 4.0 0.00 0.00 0.00 43 1013.6
20260507031519 64 260 1.0 4.0 0.00 0.00 0.00 44 1013.5
20260507030027 65 182 0.0 2.0 0.00 0.00 0.00 41 1013.4
20260507024523 65 229 0.0 3.0 0.00 0.00 0.00 40 1013.6
20260507023019 66 242 0.0 12.0 0.00 0.00 0.00 38 1013.6
20260507021522 67 277 4.0 9.0 0.00 0.00 0.00 35 1013.7
20260507020020 67 234 5.0 9.0 0.00 0.00 0.00 36 1013.7
20260507013025 69 244 4.0 9.0 0.00 0.00 0.00 34 1013.5